ATLAS 5 CENTAUR DEB, 43967

Orbit data source: Space-Track

ATLAS 5 CENTAUR DEB, 43967 is space debris in HEO originally from a launch on Wed, 17 Sep 2014 UTC launched from the Air Force Eastern Test Range (AFETR). Debris objects in space refer to the collection of defunct objects orbiting the Earth. Examples of debris include non-operational satellites, rocket bodies, and fragments generated from explosions, collisions, or faulty payload assembly.

Loading next visibility...
Identifier
43967, 2014-055W
Orbit
HEO
Country
Flag of USUS
Related business
Flag of USUnited Launch Alliance/Lockheed Martin (US)
Manufacturer
Unknown
Mission
Spacecraft
Bus & Motor
Unknown
Mass
Unknown
Launch date (UTC)
2014-09-17 (12 years ago)
Launch vehicle
Unknown
Launch site
Air Force Eastern Test Range (AFETR)
Object type
Payload
Rocket body
Debris
Shape & HBR
Unknown shape, 1.1 m
Radar Cross Section
Medium (>0.1 m² and <1 m²)

Expand to show TLE details & history
Last TLE update: 11 hours ago

TLE from 11 hours ago
0 ATLAS 5 CENTAUR DEB
1 43967U 14055W   26133.38454141  .00000034  00000-0  00000+0 0  9995
2 43967  20.2143 137.4625 5019387 174.4669 194.4684  1.82853596 51369
Epoch: 2026-05-13T09:13Z
TLE epoch observation values (Epoch: 2026-05-13T09:13:44.377Z)
Latitude
-0.00002°
Longitude
127.90119°
Altitude
35,821.635 km
Speed
2.187 km/s
True Right ascension
09h 09m 55s
True Declination
0° 00' 00"
Sunlit
Object was in daylight at epoch
Visualization orbit readout
Latitude
Unknown
Longitude
Unknown
Altitude
Unknown
Speed
Unknown
Apparent Right ascension
Unknown
Apparent Declination
Unknown
Sunlit
N/A
Visualization observer readout
Local Sidereal Time
04:35:04
Azimuth
Unknown
Elevation
Unknown
Doppler factor
Unknown
Orbital elements
Apogee altitude
36,052.777 km
Perigee altitude
7,692.475 km
Semi-major axis
28,250.763 km
Eccentricity
0.50194
Inclination
20.2143°
RAAN
137.4625°
Arg. of periapsis
174.4669°
True anomaly
185.56488°
Mean anomaly
194.4684°
Eccentric anomaly
189.64837°
Mean motion
0.45709 °/min
Orbital period
787.6 mins
BSTAR
0
Loading maneuver chart data...
Computing Atmospheric mass density...

Documentation

Showing up to 5 results
|